[[{"header":{"parameterUnit":"m.s-1","parameterCategory":2,"la1":30.2991,"la2":30.254,"lo1":-89.0895,"lo2":-89.0444,"dy":0.0017,"dx":0.0017,"nx":28,"ny":28,"refTime":"2025-01-02T03:00:00:Z","depth":"0","parameterNumber":2,"parameterNumberName":"U-component_of_CURRENTS"},"data":[0,0,0,0,0,0,0,0,0,0,0,0,0,0,0,0,0,0,0,0,0,0,0,0,0,0,0,0,0,0,0,0,0,0,0,0,0,0,0,0,0,0,0,0,0,0,0,0,0,0,0,0,0,0,0,0,0,0,-0.3391,-0.3393,0,-0.3467,-0.3467,-0.3468,-0.3401,-0.3399,-0.3397,-0.3395,-0.3309,-0.3309,-0.3309,0,0,0,0,0,0,0,0,0,0,0,0,0,-0.3202,-0.3205,-0.3391,-0.3393,-0.3394,-0.3467,-0.3467,-0.3468,-0.3401,-0.3399,-0.3396,-0.3394,-0.3309,-0.3309,-0.3309,0,0,0,0,0,0,0,0,0,0,0,0,0,-0.3275,-0.3206,-0.3391,-0.3375,-0.3375,-0.3467,-0.3467,-0.3468,-0.3402,-0.3399,-0.3396,-0.3393,-0.331,-0.3309,-0.3309,-0.3369,0,0,-0.3307,-0.3307,0,0,0,0,0,0,0,0,-0.3271,-0.3281,-0.3376,-0.3376,-0.3376,-0.3427,-0.337,-0.3429,-0.3403,-0.3385,-0.3395,-0.3391,-0.3341,-0.3338,-0.3351,-0.3365,-0.3362,-0.3307,-0.3307,-0.3307,-0.3307,0,0,0,0,0,0,0,-0.3266,-0.3278,-0.3414,-0.3378,-0.3378,-0.3369,-0.3375,-0.3381,-0.3371,-0.3386,-0.3383,-0.3403,-0.3338,-0.3352,-0.3348,-0.336,-0.3307,-0.3307,-0.3307,-0.3306,-0.3422,-0.3425,0,0,0,0,0,0,-0.3274,-0.3274,-0.3412,-0.3417,-0.3323,-0.3375,-0.3382,-0.3409,-0.3375,-0.337,-0.3406,-0.34,-0.3354,-0.3349,-0.3345,-0.3326,-0.3307,-0.3306,-0.3306,-0.3418,-0.3422,-0.3426,0,0,0,0,0,0,-0.327,-0.3286,-0.3409,-0.3351,-0.3367,-0.3383,-0.3413,-0.3412,-0.3417,-0.3393,-0.3382,-0.3411,-0.3352,-0.3346,-0.3369,-0.3325,-0.3306,-0.3306,-0.3414,-0.342,-0.3424,-0.3344,0,0,0,0,0,0,-0.3264,-0.3284,-0.3297,-0.3353,-0.3371,-0.3472,-0.3417,-0.3416,-0.3438,-0.343,-0.3395,-0.3384,-0.3349,-0.3371,-0.3369,-0.3324,-0.3305,-0.341,-0.3417,-0.3423,-0.3343,-0.3346,-0.3349,0,0,0,0,0,-0.3257,-0.3297,-0.3297,-0.3314,-0.3391,-0.3476,-0.3484,-0.3478,-0.3441,-0.3465,-0.3446,-0.3384,-0.3408,-0.3374,-0.3371,-0.3324,-0.3407,-0.3415,-0.3422,-0.3341,-0.3345,-0.3348,0,0,0,0,0,0,-0.3217,-0.3297,-0.3297,-0.3355,-0.3414,-0.3466,-0.3489,-0.3489,-0.3497,-0.3476,-0.3432,-0.3424,-0.3427,-0.343,-0.3393,-0.3393,-0.3396,-0.3404,-0.3336,-0.334,-0.3343,-0.3272,-0.3305,0,0,0,0,0,-0.322,-0.3265,-0.3342,-0.3385,-0.3419,-0.3454,-0.3481,-0.3489,-0.3512,-0.351,-0.3489,-0.3476,-0.3466,-0.3444,-0.3459,-0.3459,-0.3423,-0.3438,-0.3441,-0.3443,-0.3395,-0.3317,-0.3303,-0.3451,-0.3451,-0.345,0,0,-0.3214,-0.3265,-0.3286,-0.3379,-0.3415,-0.3445,-0.346,-0.3518,-0.3509,-0.3502,-0.3482,-0.3496,-0.3483,-0.3476,-0.3476,-0.3456,-0.3403,-0.3452,-0.3451,-0.3402,-0.3322,-0.3306,-0.3292,-0.3456,-0.3455,-0.3454,0,0,-0.3212,-0.3276,-0.3298,-0.3352,-0.3428,-0.3457,-0.3476,-0.3539,-0.3533,-0.356,-0.3533,-0.3512,-0.3537,-0.3474,-0.3451,-0.3492,-0.3439,-0.3534,-0.3446,-0.3372,-0.3355,-0.334,-0.3327,-0.3311,-0.3509,-0.3508,-0.3508,0,-0.3187,-0.323,-0.332,-0.3351,-0.3369,-0.3454,-0.3458,-0.3491,-0.3543,-0.3509,-0.3548,-0.351,-0.3503,-0.3407,-0.3429,-0.3473,-0.347,-0.3409,-0.3361,-0.3345,-0.333,-0.332,-0.3303,-0.3506,-0.3506,-0.3506,-0.3506,0,-0.319,-0.3222,-0.3252,-0.3297,-0.3336,-0.338,-0.3434,-0.3449,-0.346,-0.346,-0.3423,-0.3438,-0.3383,-0.3403,-0.3421,-0.3321,-0.3371,-0.338,-0.3316,-0.3307,-0.3303,-0.3286,-0.3501,-0.3502,-0.3503,-0.3504,0,0,-0.3103,-0.3224,-0.322,-0.3213,-0.3308,-0.3327,-0.3328,-0.3323,-0.3274,-0.3322,-0.3239,-0.3232,-0.3235,-0.3217,-0.3234,-0.3176,-0.3101,-0.3242,-0.3239,-0.3167,-0.2993,-0.2964,-0.2945,-0.3106,-0.3102,-0.3098,-0.3046,0,-0.3053,-0.308,-0.3153,-0.3135,-0.3141,-0.3205,-0.319,-0.3191,-0.3207,-0.3175,-0.3151,-0.3123,-0.3169,-0.3153,-0.3094,-0.3126,-0.3049,-0.3118,-0.3065,-0.3063,-0.2983,-0.2919,-0.2798,-0.2733,-0.303,-0.3027,-0.3025,0,-0.298,-0.3012,-0.3,-0.3019,-0.3024,-0.3022,-0.297,-0.298,-0.2965,-0.2977,-0.2927,-0.2965,-0.2897,-0.2961,-0.2887,-0.2947,-0.2942,-0.2956,-0.2954,-0.292,-0.2999,-0.2788,-0.2692,-0.2676,-0.2999,-0.3001,-0.3003,0,-0.2811,-0.287,-0.2844,-0.2862,-0.2921,-0.2881,-0.2892,-0.2883,-0.2876,-0.2849,-0.2851,-0.279,-0.2791,-0.2752,-0.2813,-0.2847,-0.2763,-0.2799,-0.2746,-0.2749,-0.2622,-0.2618,-0.2429,-0.2672,-0.2673,-0.2673,-0.2673,0,-0.2695,-0.2655,-0.2764,-0.2748,-0.2687,-0.2756,-0.2686,-0.2693,-0.271,-0.269,-0.2736,-0.2721,-0.2744,-0.2737,-0.2757,-0.2711,-0.2696,-0.2686,-0.2695,-0.2608,-0.2603,-0.2569,-0.261,-0.2671,-0.2671,-0.2672,-0.2672,0,-0.248,-0.257,-0.2541,-0.2604,-0.2613,-0.2555,-0.26,-0.2564,-0.2607,-0.2589,-0.2589,-0.2655,-0.2653,-0.2678,-0.2649,-0.2637,-0.2549,-0.2575,-0.2511,-0.2509,-0.2426,-0.2471,-0.2295,-0.2235,-0.2475,-0.2473,-0.2472,0,-0.2365,-0.2345,-0.2418,-0.2414,-0.2438,-0.241,-0.2406,-0.2478,-0.2479,-0.2548,-0.2536,-0.2562,-0.2556,-0.253,-0.2503,-0.2464,-0.2476,-0.2334,-0.2321,-0.2349,-0.2405,-0.2445,-0.2411,-0.2166,-0.2162,-0.2159,-0.2156,0,-0.2152,-0.22,-0.2206,-0.2223,-0.2225,-0.2225,-0.2242,-0.2244,-0.234,-0.2354,-0.2388,-0.2395,-0.2404,-0.2327,-0.2304,-0.2268,-0.2267,-0.2269,-0.2267,-0.2092,-0.2144,-0.2117,-0.2346,-0.2129,-0.2132,-0.2134,-0.2135,-0.2136,-0.1993,-0.1965,-0.2023,-0.2008,-0.2026,-0.2031,-0.199,-0.2056,-0.2059,-0.2085,-0.2197,-0.2182,-0.2183,-0.2127,-0.2097,-0.1995,-0.2069,-0.1936,-0.198,-0.2014,-0.1941,-0.214,-0.1954,-0.1955,-0.1957,-0.1958,-0.1959,0,-0.1805,-0.1818,-0.1807,-0.1818,-0.1782,-0.1853,-0.187,-0.1833,-0.1812,-0.1884,-0.19,-0.1924,-0.1849,-0.1865,-0.1799,-0.173,-0.1693,-0.1702,-0.1703,-0.1674,-0.1793,-0.1764,-0.1561,-0.1561,-0.1561,-0.1561,-0.1561,-0.1561,-0.1714,-0.166,-0.1673,-0.1581,-0.1583,-0.1509,-0.1496,-0.1486,-0.1507,-0.15,-0.1541,-0.1618,-0.1659,-0.1787,-0.1687,-0.1608,-0.1583,-0.1532,-0.1588,-0.1673,-0.1698,-0.1722,-0.1699,-0.1486,-0.1486,-0.1379,-0.1379,-0.1379]},{"header":{"parameterUnit":"m.s-1","parameterCategory":2,"la1":30.2991,"la2":30.254,"lo1":-89.0895,"lo2":-89.0444,"dy":0.0017,"dx":0.0017,"nx":28,"ny":28,"refTime":"2025-01-02T03:00:00:Z","depth":"0","parameterNumber":3,"parameterNumberName":"V-component_of_CURRENTS"},"data":[0,0,0,0,0,0,0,0,0,0,0,0,0,0,0,0,0,0,0,0,0,0,0,0,0,0,0,0,0,0,0,0,0,0,0,0,0,0,0,0,0,0,0,0,0,0,0,0,0,0,0,0,0,0,0,0,0,0,-0.0059,-0.0058,0,0.0086,0.0087,0.0089,0.0186,0.0186,0.0187,0.0187,0.0345,0.0349,0.0353,0,0,0,0,0,0,0,0,0,0,0,0,0,-0.0159,-0.0159,-0.0059,-0.0058,-0.0056,0.0085,0.0088,0.009,0.0186,0.0186,0.0187,0.0187,0.0344,0.0349,0.0353,0,0,0,0,0,0,0,0,0,0,0,0,0,-0.0073,-0.0158,-0.006,0.0007,0.0014,0.0085,0.0088,0.009,0.0186,0.0186,0.0187,0.0188,0.0343,0.0348,0.0354,0.0376,0,0,0.0371,0.0374,0,0,0,0,0,0,0,0,-0.0079,-0.007,-0.0004,0.0003,0.0011,0.0116,0.011,0.0186,0.0186,0.0123,0.0187,0.0188,0.0268,0.028,0.0309,0.0383,0.039,0.0372,0.0375,0.0378,0.0379,0,0,0,0,0,0,0,-0.0085,-0.0075,0.0001,-0.0003,0.0006,0.0062,0.0074,0.0126,0.0192,0.0129,0.0136,0.0147,0.0273,0.0303,0.0313,0.0393,0.0372,0.0377,0.038,0.0382,0.0523,0.0524,0,0,0,0,0,0,-0.0113,-0.0081,-0.0004,0.0005,-0.0036,0.0062,0.0076,0.0084,0.0192,0.0208,0.0147,0.0151,0.0293,0.0307,0.0319,0.0338,0.0378,0.0383,0.0386,0.0523,0.0523,0.0524,0,0,0,0,0,0,-0.0116,-0.0108,-0.001,-0.0036,-0.002,0.0062,0.0071,0.0086,0.0116,0.0205,0.0222,0.016,0.0294,0.0311,0.0369,0.0345,0.0386,0.0391,0.0523,0.0523,0.0524,0.0383,0,0,0,0,0,0,-0.012,-0.011,-0.012,-0.0039,-0.002,0.0022,0.007,0.0088,0.0122,0.0129,0.0222,0.0238,0.0296,0.036,0.0375,0.0353,0.0395,0.0522,0.0523,0.0523,0.0387,0.0379,0.0371,0,0,0,0,0,-0.0124,-0.0144,-0.0121,-0.0112,-0.0035,0.0021,0.0036,0.0099,0.0121,0.013,0.0198,0.0235,0.0374,0.0365,0.0382,0.0362,0.0522,0.0523,0.0523,0.0391,0.038,0.0372,0,0,0,0,0,0,-0.0198,-0.0134,-0.0107,-0.0109,-0.0052,0.0036,0.0043,0.0089,0.015,0.0156,0.024,0.0261,0.0303,0.0359,0.0347,0.0409,0.0454,0.0458,0.0347,0.0338,0.033,0.0318,0.04,0,0,0,0,0,-0.022,-0.0217,-0.0141,-0.0144,-0.0122,-0.0041,-0.0014,0.0033,0.0099,0.0127,0.0192,0.0263,0.032,0.0349,0.0413,0.0442,0.0497,0.0444,0.0436,0.0428,0.0434,0.0484,0.048,0.0526,0.0526,0.0526,0,0,-0.0251,-0.0216,-0.0215,-0.0159,-0.0113,-0.0089,-0.0022,0.0013,0.0034,0.0133,0.0172,0.0238,0.0326,0.0363,0.0386,0.0403,0.0445,0.0429,0.0421,0.0432,0.0484,0.048,0.0475,0.0527,0.0526,0.0526,0,0,-0.0305,-0.0279,-0.0288,-0.0248,-0.0186,-0.0135,-0.0131,-0.0046,-0.0008,0.0043,0.0116,0.0169,0.0258,0.0313,0.0352,0.0342,0.0404,0.0358,0.0299,0.0346,0.0342,0.0339,0.0394,0.0397,0.0348,0.0347,0.0347,0,-0.0346,-0.0341,-0.0283,-0.0275,-0.0251,-0.0164,-0.0159,-0.0111,-0.0018,0.0011,0.0038,0.0172,0.0235,0.0286,0.0282,0.0319,0.0362,0.0317,0.0332,0.033,0.033,0.0387,0.0392,0.0341,0.0341,0.0342,0.0343,0,-0.0391,-0.0389,-0.0393,-0.0355,-0.0323,-0.0307,-0.0231,-0.0196,-0.0144,-0.0085,-0.002,0.0072,0.0155,0.0171,0.0222,0.0248,0.0284,0.0313,0.0343,0.0316,0.0379,0.0387,0.0331,0.0333,0.0335,0.0337,0,0,-0.0473,-0.0434,-0.0435,-0.0425,-0.0362,-0.0335,-0.0311,-0.025,-0.0227,-0.015,-0.0113,-0.0025,0.0031,0.0082,0.0148,0.0183,0.0205,0.0233,0.0239,0.0264,0.0314,0.037,0.0385,0.0225,0.0226,0.0227,0.0355,0,-0.0522,-0.0534,-0.0495,-0.0499,-0.0493,-0.0417,-0.0398,-0.0334,-0.0269,-0.0214,-0.0124,-0.0061,-0.0005,0.003,0.0071,0.0185,0.0222,0.0169,0.0359,0.0365,0.0398,0.0394,0.0425,0.0544,0.0363,0.0365,0.0366,0,-0.057,-0.057,-0.0587,-0.0555,-0.0545,-0.0536,-0.0477,-0.0445,-0.0353,-0.0302,-0.023,-0.0145,-0.0064,-0.0021,0.0138,0.0099,0.0194,0.0272,0.0279,0.0389,0.0436,0.0549,0.0566,0.0713,0.0379,0.0378,0.0377,0,-0.0634,-0.0628,-0.0644,-0.0634,-0.0589,-0.0582,-0.0553,-0.0475,-0.0443,-0.0354,-0.0318,-0.0206,-0.0135,-0.0016,0.0158,0.0144,0.0335,0.0341,0.0482,0.0487,0.0585,0.0597,0.0751,0.0442,0.0442,0.0442,0.0441,0,-0.0688,-0.0698,-0.0677,-0.0683,-0.0696,-0.0642,-0.0633,-0.0583,-0.0516,-0.0479,-0.0369,-0.0306,-0.0133,0.0005,0.0143,0.0351,0.0332,0.0481,0.0525,0.0538,0.0544,0.0736,0.0787,0.0446,0.0445,0.0444,0.0444,0,-0.0738,-0.0729,-0.0744,-0.0726,-0.0723,-0.0727,-0.0692,-0.0678,-0.0609,-0.0556,-0.0531,-0.0373,-0.0186,0.0003,0.0223,0.0346,0.0627,0.0603,0.0612,0.0654,0.0902,0.0943,0.1155,0.1243,0.0768,0.077,0.0772,0,-0.0759,-0.0776,-0.0783,-0.08,-0.0793,-0.0793,-0.0791,-0.0731,-0.071,-0.0585,-0.0561,-0.0377,-0.0218,0.0132,0.0375,0.0639,0.0741,0.0814,0.0792,0.0932,0.101,0.1034,0.1093,0.0868,0.087,0.0872,0.0874,0,-0.0795,-0.0801,-0.0815,-0.0856,-0.0869,-0.0876,-0.0866,-0.0866,-0.0782,-0.0711,-0.0577,-0.0441,-0.0096,0.0227,0.0567,0.0722,0.0922,0.0863,0.101,0.1107,0.1143,0.1242,0.077,0.0892,0.089,0.0889,0.0888,0.0887,-0.0817,-0.0842,-0.0868,-0.0899,-0.0923,-0.0941,-0.0936,-0.0907,-0.0854,-0.0715,-0.0593,-0.0344,0.0103,0.0593,0.0771,0.1141,0.1092,0.1245,0.1286,0.13,0.1378,0.0947,0.1113,0.1112,0.1112,0.1111,0.1111,0,-0.0837,-0.0865,-0.0907,-0.0943,-0.0972,-0.097,-0.0966,-0.0924,-0.0848,-0.0694,-0.0522,-0.0018,0.0432,0.0835,0.1347,0.1551,0.1583,0.1649,0.169,0.1732,0.1365,0.1364,0.1588,0.1588,0.1588,0.1588,0.1588,0.1587,-0.0849,-0.089,-0.0912,-0.0965,-0.0991,-0.099,-0.0979,-0.0891,-0.0772,-0.0463,-0.0179,0.0039,0.0605,0.1418,0.189,0.1934,0.2099,0.2083,0.2174,0.1917,0.1882,0.1848,0.1861,0.2186,0.2187,0.2529,0.2532,0.2535]}],[{"header":{"parameterUnit":"m.s-1","parameterCategory":2,"la1":30.2991,"la2":30.254,"lo1":-89.0895,"lo2":-89.0444,"dy":0.0017,"dx":0.0017,"nx":28,"ny":28,"refTime":"2025-01-02T03:00:00:Z","depth":"2","parameterNumber":2,"parameterNumberName":"U-component_of_CURRENTS"},"data":[0,0,0,0,0,0,0,0,0,0,0,0,0,0,0,0,0,0,0,0,0,0,0,0,0,0,0,0,0,0,0,0,0,0,0,0,0,0,0,0,0,0,0,0,0,0,0,0,0,0,0,0,0,0,0,0,0,0,-0.2544,-0.2546,0,-0.2586,-0.2586,-0.2585,-0.2596,-0.2597,-0.2598,-0.2599,-0.2649,-0.265,-0.265,0,0,0,0,0,0,0,0,0,0,0,0,0,-0.2387,-0.2389,-0.2544,-0.2546,-0.2548,-0.2586,-0.2586,-0.2585,-0.2595,-0.2597,-0.2598,-0.26,-0.2649,-0.2649,-0.265,0,0,0,0,0,0,0,0,0,0,0,0,0,-0.2431,-0.239,-0.2543,-0.2569,-0.2573,-0.2587,-0.2585,-0.2584,-0.2595,-0.2597,-0.2599,-0.26,-0.2649,-0.2649,-0.265,-0.2618,0,0,-0.2651,-0.2651,0,0,0,0,0,0,0,0,-0.2428,-0.2434,-0.2563,-0.2567,-0.2572,-0.2601,-0.255,-0.2602,-0.2595,-0.257,-0.2599,-0.2601,-0.2643,-0.2644,-0.2626,-0.2621,-0.2623,-0.2651,-0.2651,-0.2652,-0.2652,0,0,0,0,0,0,0,-0.2425,-0.2433,-0.2545,-0.2566,-0.2571,-0.2551,-0.2557,-0.2558,-0.2585,-0.2573,-0.2577,-0.2606,-0.2643,-0.2625,-0.2627,-0.2624,-0.2651,-0.2652,-0.2652,-0.2652,-0.2703,-0.2705,0,0,0,0,0,0,-0.2454,-0.243,-0.2544,-0.2548,-0.252,-0.2553,-0.2561,-0.2577,-0.2585,-0.2592,-0.2605,-0.2607,-0.2624,-0.2627,-0.2629,-0.2659,-0.2652,-0.2652,-0.2652,-0.2702,-0.2704,-0.2705,0,0,0,0,0,0,-0.245,-0.2463,-0.2543,-0.2503,-0.2514,-0.2557,-0.2574,-0.2578,-0.2584,-0.2612,-0.2616,-0.2613,-0.2625,-0.2629,-0.2656,-0.2659,-0.2652,-0.2653,-0.2701,-0.2703,-0.2704,-0.2675,0,0,0,0,0,0,-0.2445,-0.246,-0.248,-0.2504,-0.2518,-0.2574,-0.2574,-0.2578,-0.2606,-0.2609,-0.262,-0.2625,-0.2627,-0.2656,-0.2657,-0.2659,-0.2653,-0.27,-0.2702,-0.2704,-0.2675,-0.2676,-0.2677,0,0,0,0,0,-0.2439,-0.2463,-0.248,-0.2496,-0.2543,-0.2576,-0.2579,-0.2604,-0.2605,-0.2612,-0.2623,-0.2625,-0.2671,-0.2657,-0.2658,-0.266,-0.2699,-0.2701,-0.2704,-0.2675,-0.2676,-0.2677,0,0,0,0,0,0,-0.2411,-0.2469,-0.2488,-0.2531,-0.2566,-0.2585,-0.26,-0.2611,-0.2618,-0.2643,-0.263,-0.2636,-0.2661,-0.2672,-0.2656,-0.2687,-0.2688,-0.2691,-0.2666,-0.2667,-0.2668,-0.2647,-0.2653,0,0,0,0,0,-0.2416,-0.2447,-0.2497,-0.2534,-0.2549,-0.2571,-0.2588,-0.2627,-0.2645,-0.265,-0.2629,-0.2645,-0.2665,-0.2677,-0.2689,-0.2699,-0.2682,-0.2708,-0.2709,-0.2709,-0.2696,-0.2662,-0.2657,-0.2713,-0.2713,-0.2713,0,0,-0.2415,-0.2458,-0.2474,-0.2531,-0.2548,-0.2562,-0.2581,-0.2641,-0.2649,-0.2656,-0.2627,-0.2644,-0.267,-0.2683,-0.2696,-0.2696,-0.2691,-0.2712,-0.2712,-0.2698,-0.2664,-0.2658,-0.2653,-0.2715,-0.2715,-0.2714,0,0,-0.2416,-0.2463,-0.2476,-0.2503,-0.2577,-0.2594,-0.2615,-0.2636,-0.2644,-0.2655,-0.2658,-0.2668,-0.2676,-0.2677,-0.269,-0.2703,-0.2695,-0.2729,-0.2711,-0.2679,-0.2672,-0.2667,-0.2651,-0.2644,-0.273,-0.273,-0.2729,0,-0.2414,-0.244,-0.2487,-0.2502,-0.2524,-0.26,-0.2609,-0.2628,-0.2651,-0.2646,-0.266,-0.2645,-0.2665,-0.2669,-0.2684,-0.2698,-0.2692,-0.2698,-0.2675,-0.2669,-0.2663,-0.2649,-0.2641,-0.2728,-0.2729,-0.2729,-0.2729,0,-0.2406,-0.2436,-0.2447,-0.248,-0.2505,-0.255,-0.2593,-0.2605,-0.2624,-0.2631,-0.2636,-0.2645,-0.2634,-0.2652,-0.2677,-0.2658,-0.2671,-0.2674,-0.266,-0.2655,-0.2642,-0.2634,-0.2727,-0.2727,-0.2728,-0.2728,0,0,-0.2364,-0.2428,-0.2429,-0.2439,-0.2511,-0.2528,-0.2551,-0.2576,-0.2582,-0.2596,-0.2566,-0.2594,-0.2597,-0.2612,-0.2632,-0.2614,-0.258,-0.2636,-0.2635,-0.2599,-0.2524,-0.2478,-0.2466,-0.258,-0.2579,-0.2577,-0.2533,0,-0.2338,-0.2359,-0.2398,-0.2408,-0.2412,-0.248,-0.248,-0.2527,-0.2556,-0.2542,-0.2573,-0.2566,-0.2588,-0.2595,-0.2577,-0.2591,-0.2559,-0.2593,-0.2553,-0.2552,-0.2492,-0.2454,-0.2267,-0.2207,-0.2526,-0.2525,-0.2524,0,-0.2288,-0.2319,-0.2323,-0.2368,-0.2373,-0.2387,-0.2413,-0.2437,-0.2472,-0.2493,-0.2498,-0.2523,-0.2518,-0.2533,-0.2506,-0.2533,-0.2519,-0.2517,-0.2515,-0.247,-0.249,-0.2264,-0.2182,-0.2512,-0.2513,-0.2513,-0.2514,0,-0.2202,-0.225,-0.2255,-0.227,-0.2333,-0.2337,-0.2367,-0.2408,-0.2425,-0.2455,-0.2468,-0.247,-0.2475,-0.2454,-0.2471,-0.2486,-0.2439,-0.2452,-0.2385,-0.2383,-0.2212,-0.2197,-0.2391,-0.2391,-0.2391,-0.2391,-0.2392,0,-0.2142,-0.2138,-0.2217,-0.2218,-0.222,-0.228,-0.2284,-0.2318,-0.2365,-0.2376,-0.243,-0.243,-0.2456,-0.2451,-0.2449,-0.2398,-0.241,-0.236,-0.2354,-0.2202,-0.2188,-0.2446,-0.2453,-0.239,-0.239,-0.239,-0.2391,0,-0.2029,-0.2089,-0.2093,-0.2162,-0.2178,-0.2173,-0.2234,-0.2239,-0.2304,-0.2317,-0.2327,-0.2391,-0.2385,-0.2404,-0.2382,-0.236,-0.2323,-0.2295,-0.2131,-0.2104,-0.2295,-0.2302,-0.22,-0.2198,-0.2196,-0.2194,-0.2193,0,-0.1967,-0.1963,-0.2029,-0.2033,-0.2061,-0.208,-0.2095,-0.2182,-0.2199,-0.2282,-0.2276,-0.2306,-0.2288,-0.2259,-0.2223,-0.2176,-0.2258,-0.1989,-0.1965,-0.2264,-0.2268,-0.2278,-0.2287,-0.1737,-0.1732,-0.1728,-0.1724,0,-0.1844,-0.1876,-0.1891,-0.191,-0.1927,-0.1945,-0.198,-0.1991,-0.2092,-0.211,-0.2132,-0.2129,-0.2125,-0.2001,-0.1972,-0.1926,-0.1986,-0.1904,-0.2219,-0.1828,-0.1826,-0.1832,-0.1856,-0.1688,-0.1691,-0.1694,-0.1696,-0.1698,-0.1737,-0.1724,-0.1757,-0.1758,-0.1782,-0.1787,-0.1761,-0.1817,-0.1824,-0.1832,-0.1929,-0.1868,-0.1881,-0.173,-0.1665,-0.1625,-0.176,-0.1682,-0.1694,-0.1711,-0.1679,-0.1674,-0.1503,-0.1505,-0.1507,-0.1509,-0.1511,0,-0.1592,-0.1601,-0.1598,-0.1606,-0.158,-0.1644,-0.1659,-0.1615,-0.1577,-0.1612,-0.1603,-0.1453,-0.138,-0.1409,-0.1284,-0.1278,-0.126,-0.1232,-0.1198,-0.1234,-0.1267,-0.1213,-0.0912,-0.0911,-0.0909,-0.0908,0,0,-0.1515,-0.1469,-0.1478,-0.1398,-0.1402,-0.133,-0.1311,-0.1272,-0.1262,-0.1183,-0.1153,-0.1266,-0.1327,-0.1106,-0.107,-0.0966,-0.1084,-0.0916,-0.139,-0.1382,-0.1412,-0.1516,-0.1472,0,0,0,0,0]},{"header":{"parameterUnit":"m.s-1","parameterCategory":2,"la1":30.2991,"la2":30.254,"lo1":-89.0895,"lo2":-89.0444,"dy":0.0017,"dx":0.0017,"nx":28,"ny":28,"refTime":"2025-01-02T03:00:00:Z","depth":"2","parameterNumber":3,"parameterNumberName":"V-component_of_CURRENTS"},"data":[0,0,0,0,0,0,0,0,0,0,0,0,0,0,0,0,0,0,0,0,0,0,0,0,0,0,0,0,0,0,0,0,0,0,0,0,0,0,0,0,0,0,0,0,0,0,0,0,0,0,0,0,0,0,0,0,0,0,-0.0189,-0.0188,0,-0.0088,-0.0087,-0.0086,-0.0001,0.0,0.0001,0.0001,0.018,0.0184,0.0188,0,0,0,0,0,0,0,0,0,0,0,0,0,-0.0247,-0.0246,-0.0189,-0.0188,-0.0187,-0.0089,-0.0087,-0.0085,-0.0001,0.0,0.0001,0.0002,0.0179,0.0184,0.0189,0,0,0,0,0,0,0,0,0,0,0,0,0,-0.0189,-0.0246,-0.0189,-0.0135,-0.0129,-0.0089,-0.0087,-0.0085,-0.0001,0.0,0.0001,0.0002,0.0177,0.0183,0.0189,0.0207,0,0,0.0208,0.0211,0,0,0,0,0,0,0,0,-0.0192,-0.0187,-0.0144,-0.0139,-0.0132,-0.0058,-0.0042,0.0016,-0.0001,-0.0047,0.0002,0.0003,0.0105,0.0117,0.0137,0.0216,0.0223,0.0209,0.0213,0.0215,0.0217,0,0,0,0,0,0,0,-0.0197,-0.019,-0.0146,-0.0143,-0.0136,-0.0095,-0.0086,-0.003,0.0026,-0.0043,-0.0037,-0.003,0.011,0.0131,0.0142,0.0226,0.0209,0.0214,0.0218,0.0221,0.0364,0.0364,0,0,0,0,0,0,-0.0219,-0.0194,-0.015,-0.0144,-0.0164,-0.0095,-0.0085,-0.0081,0.0024,0.0039,-0.0031,-0.0027,0.012,0.0135,0.0149,0.0189,0.0215,0.0221,0.0225,0.0364,0.0364,0.0364,0,0,0,0,0,0,-0.0221,-0.0216,-0.0154,-0.0169,-0.0158,-0.0096,-0.0092,-0.0079,-0.0053,0.0031,0.0049,-0.0018,0.0121,0.014,0.0203,0.0196,0.0224,0.023,0.0364,0.0364,0.0364,0.0262,0,0,0,0,0,0,-0.0223,-0.0217,-0.0224,-0.017,-0.0158,-0.0133,-0.0093,-0.0078,-0.0053,-0.0045,0.0048,0.0066,0.0123,0.0193,0.0209,0.0205,0.0234,0.0364,0.0364,0.0364,0.0265,0.0259,0.0253,0,0,0,0,0,-0.0225,-0.0241,-0.0225,-0.0219,-0.0169,-0.0133,-0.0123,-0.0073,-0.0053,-0.0045,0.0021,0.0063,0.0206,0.0198,0.0217,0.0215,0.0363,0.0364,0.0364,0.0268,0.026,0.0253,0,0,0,0,0,0,-0.0269,-0.0233,-0.0214,-0.0217,-0.018,-0.012,-0.0115,-0.008,-0.0024,-0.0012,0.0067,0.0089,0.0139,0.0193,0.0183,0.0258,0.0291,0.0295,0.0211,0.0205,0.0199,0.0188,0.024,0,0,0,0,0,-0.0284,-0.0287,-0.0239,-0.0243,-0.0229,-0.0174,-0.0155,-0.0117,-0.0062,-0.0036,0.0024,0.0094,0.0153,0.0191,0.0249,0.0292,0.0339,0.0304,0.0297,0.0292,0.0297,0.0353,0.0352,0.0365,0.0365,0.0365,0,0,-0.0305,-0.0285,-0.0287,-0.0253,-0.0222,-0.0205,-0.0159,-0.0132,-0.011,-0.0025,0.0016,0.0073,0.0158,0.0205,0.0232,0.0251,0.0311,0.0292,0.0286,0.0295,0.0353,0.0352,0.0351,0.0365,0.0365,0.0365,0,0,-0.0342,-0.0327,-0.0337,-0.031,-0.0268,-0.0232,-0.0229,-0.017,-0.0138,-0.009,-0.0028,0.0026,0.0113,0.0172,0.0214,0.0212,0.0272,0.0226,0.0194,0.0247,0.0246,0.0246,0.0288,0.0293,0.0228,0.0228,0.0228,0,-0.0366,-0.0368,-0.0334,-0.0329,-0.0312,-0.0251,-0.0245,-0.0206,-0.0134,-0.0106,-0.0087,0.0037,0.01,0.0168,0.0164,0.0197,0.0233,0.0209,0.0237,0.0238,0.0239,0.0283,0.029,0.0223,0.0223,0.0224,0.0224,0,-0.0398,-0.0398,-0.0403,-0.0378,-0.0355,-0.0343,-0.0285,-0.0257,-0.0216,-0.0168,-0.0102,-0.002,0.0059,0.0077,0.0122,0.0164,0.0187,0.0214,0.0247,0.0231,0.0279,0.0288,0.0216,0.0218,0.0219,0.022,0,0,-0.0456,-0.0432,-0.0433,-0.0426,-0.0378,-0.036,-0.0332,-0.0281,-0.0257,-0.0192,-0.0154,-0.0066,-0.0021,0.003,0.0089,0.0132,0.0163,0.0169,0.0174,0.0197,0.0271,0.0295,0.0307,0.0188,0.019,0.0191,0.0294,0,-0.049,-0.0499,-0.0471,-0.0472,-0.0469,-0.041,-0.039,-0.0333,-0.0278,-0.0229,-0.0141,-0.0084,-0.0038,-0.0006,0.0045,0.0138,0.0183,0.0132,0.0297,0.0302,0.0314,0.0317,0.0278,0.0367,0.0302,0.0304,0.0305,0,-0.0525,-0.0526,-0.0538,-0.0513,-0.0506,-0.0496,-0.0445,-0.0415,-0.033,-0.0286,-0.0212,-0.0141,-0.0056,-0.0024,0.0125,0.0088,0.0171,0.0237,0.0243,0.0311,0.0342,0.0379,0.0386,0.032,0.0318,0.0317,0.0316,0,-0.0576,-0.0569,-0.0582,-0.0574,-0.0538,-0.053,-0.0506,-0.0435,-0.0408,-0.0322,-0.029,-0.0176,-0.0117,-0.0002,0.0141,0.0133,0.03,0.0312,0.0415,0.0417,0.0442,0.0445,0.0416,0.0416,0.0415,0.0415,0.0415,0,-0.0618,-0.0627,-0.061,-0.0617,-0.0628,-0.0581,-0.0573,-0.0529,-0.0466,-0.0433,-0.0327,-0.0272,-0.0111,0.0009,0.0132,0.0303,0.0302,0.0415,0.045,0.0404,0.0402,0.0413,0.0411,0.0419,0.0418,0.0417,0.0417,0,-0.0667,-0.0657,-0.0671,-0.0655,-0.0653,-0.066,-0.063,-0.0617,-0.0552,-0.0506,-0.0483,-0.0341,-0.0183,-0.0012,0.0185,0.0292,0.0451,0.0512,0.0442,0.0467,0.053,0.0522,0.0631,0.0633,0.0635,0.0636,0.0637,0,-0.069,-0.0705,-0.0711,-0.0727,-0.0724,-0.0727,-0.0726,-0.067,-0.065,-0.0541,-0.0521,-0.0365,-0.0235,0.0063,0.027,0.0496,0.0502,0.0589,0.0572,0.0532,0.0555,0.0545,0.0535,0.056,0.056,0.0561,0.0561,0,-0.0734,-0.0738,-0.075,-0.0788,-0.0802,-0.0809,-0.0802,-0.0802,-0.0725,-0.0666,-0.0557,-0.0446,-0.0164,0.0077,0.0362,0.0489,0.0548,0.0603,0.0598,0.0507,0.0472,0.0492,0.0484,0.0564,0.0563,0.0563,0.0563,0.0563,-0.0764,-0.0789,-0.0809,-0.084,-0.0862,-0.0877,-0.0878,-0.0851,-0.0809,-0.0698,-0.0597,-0.0403,-0.0179,0.0227,0.0424,0.0605,0.0606,0.0652,0.0648,0.0644,0.0613,0.0583,0.0689,0.0689,0.069,0.069,0.069,0,-0.0795,-0.0818,-0.0857,-0.089,-0.0918,-0.0913,-0.091,-0.0881,-0.0824,-0.0704,-0.0571,-0.0313,-0.0036,0.0205,0.0491,0.0663,0.0642,0.0687,0.0622,0.0618,0.0616,0.058,0.0649,0.0649,0.0649,0.065,0,0,-0.0811,-0.085,-0.0867,-0.092,-0.0945,-0.0954,-0.0946,-0.0884,-0.0789,-0.066,-0.0513,-0.0315,-0.0026,0.0168,0.0375,0.0523,0.0526,0.0533,0.0548,0.0442,0.0437,0.0576,0.0516,0,0,0,0,0]}],[{"header":{"parameterUnit":"m.s-1","parameterCategory":2,"la1":30.2991,"la2":30.254,"lo1":-89.0895,"lo2":-89.0444,"dy":0.0017,"dx":0.0017,"nx":28,"ny":28,"refTime":"2025-01-02T03:00:00:Z","depth":"4","parameterNumber":2,"parameterNumberName":"U-component_of_CURRENTS"},"data":[0,0,0,0,0,0,0,0,0,0,0,0,0,0,0,0,0,0,0,0,0,0,0,0,0,0,0,0,0,0,0,0,0,0,0,0,0,0,0,0,0,0,0,0,0,0,0,0,0,0,0,0,0,0,0,0,0,0,-0.1146,-0.1146,0,-0.1163,-0.1164,-0.1164,-0.1194,-0.1194,-0.1194,-0.1194,-0.1241,-0.1242,-0.1244,0,0,0,0,0,0,0,0,0,0,0,0,0,-0.1114,-0.1115,-0.1146,-0.1146,-0.1145,-0.1163,-0.1164,-0.1165,-0.1194,-0.1194,-0.1194,-0.1194,-0.1241,-0.1242,-0.1244,0,0,0,0,0,0,0,0,0,0,0,0,0,-0.1136,-0.1116,-0.1146,-0.1157,-0.1157,-0.1163,-0.1164,-0.1165,-0.1194,-0.1194,-0.1194,-0.1194,-0.124,-0.1242,-0.1244,-0.1259,0,0,-0.125,-0.1251,0,0,0,0,0,0,0,0,-0.1135,-0.1138,-0.1156,-0.1156,-0.1157,-0.117,-0.1169,-0.1195,-0.1194,-0.1188,-0.1194,-0.1194,-0.1215,-0.1219,-0.1233,-0.1262,-0.1264,-0.125,-0.1252,-0.1252,-0.1253,0,0,0,0,0,0,0,-0.1133,-0.1137,-0.116,-0.1155,-0.1155,-0.1151,-0.1155,-0.1175,-0.1208,-0.1188,-0.1189,-0.1179,-0.1217,-0.1231,-0.1234,-0.1264,-0.125,-0.1252,-0.1253,-0.1254,-0.1364,-0.1365,0,0,0,0,0,0,-0.1118,-0.1136,-0.1159,-0.116,-0.1137,-0.1152,-0.1156,-0.1172,-0.1208,-0.121,-0.1179,-0.118,-0.1227,-0.1232,-0.1236,-0.1346,-0.1252,-0.1254,-0.1255,-0.1362,-0.1364,-0.1366,0,0,0,0,0,0,-0.1118,-0.1122,-0.1159,-0.1141,-0.1144,-0.1152,-0.1169,-0.1172,-0.1209,-0.1199,-0.1204,-0.1215,-0.1227,-0.1233,-0.1273,-0.1345,-0.1255,-0.1257,-0.136,-0.1363,-0.1365,-0.1509,0,0,0,0,0,0,-0.1118,-0.1122,-0.1149,-0.1141,-0.1145,-0.1182,-0.1168,-0.1172,-0.1198,-0.1201,-0.1231,-0.1234,-0.1228,-0.127,-0.1275,-0.1346,-0.1259,-0.1358,-0.1361,-0.1364,-0.1502,-0.1516,-0.1528,0,0,0,0,0,-0.1117,-0.1152,-0.1151,-0.1154,-0.1175,-0.1182,-0.1186,-0.1193,-0.12,-0.1227,-0.1243,-0.1234,-0.1294,-0.1273,-0.1279,-0.1352,-0.1356,-0.136,-0.1364,-0.1496,-0.1513,-0.1528,0,0,0,0,0,0,-0.1158,-0.1157,-0.1156,-0.1192,-0.1192,-0.1185,-0.1217,-0.1212,-0.1248,-0.1257,-0.1255,-0.126,-0.1324,-0.1307,-0.1284,-0.1387,-0.1324,-0.133,-0.1423,-0.1439,-0.1452,-0.1454,-0.126,0,0,0,0,0,-0.1174,-0.12,-0.1191,-0.122,-0.1232,-0.123,-0.1241,-0.1236,-0.1249,-0.1266,-0.1287,-0.1308,-0.1341,-0.1364,-0.138,-0.1438,-0.1403,-0.1485,-0.1498,-0.1509,-0.1512,-0.152,-0.1534,-0.1378,-0.1378,-0.1378,0,0,-0.1197,-0.1197,-0.1215,-0.1229,-0.1243,-0.1276,-0.1242,-0.1262,-0.1299,-0.1265,-0.135,-0.1356,-0.1363,-0.1431,-0.1458,-0.143,-0.1535,-0.1514,-0.1525,-0.1521,-0.1525,-0.1541,-0.1554,-0.1381,-0.138,-0.138,0,0,-0.1237,-0.1264,-0.1295,-0.1307,-0.1312,-0.132,-0.1332,-0.1343,-0.137,-0.1421,-0.1417,-0.1464,-0.1509,-0.1538,-0.1555,-0.1646,-0.1601,-0.1652,-0.1734,-0.1742,-0.1755,-0.1766,-0.1742,-0.175,-0.1664,-0.1665,-0.1665,0,-0.1267,-0.13,-0.1305,-0.1335,-0.1356,-0.135,-0.139,-0.1423,-0.1444,-0.147,-0.1465,-0.1548,-0.1568,-0.1648,-0.169,-0.1684,-0.1655,-0.1681,-0.1761,-0.1771,-0.178,-0.1752,-0.1759,-0.1672,-0.1671,-0.167,-0.167,0,-0.1312,-0.1355,-0.1382,-0.1428,-0.1458,-0.1487,-0.1517,-0.1562,-0.1593,-0.1608,-0.1685,-0.1706,-0.1746,-0.1778,-0.1773,-0.1856,-0.1804,-0.1776,-0.1726,-0.1805,-0.177,-0.1774,-0.1683,-0.168,-0.1678,-0.1676,0,0,-0.1336,-0.1401,-0.1412,-0.1446,-0.1504,-0.1525,-0.1617,-0.1676,-0.1723,-0.1772,-0.1831,-0.1921,-0.1909,-0.1925,-0.1925,-0.1954,-0.2014,-0.1903,-0.19,-0.1886,-0.2004,-0.187,-0.186,-0.1996,-0.1998,-0.1999,-0.1955,0,-0.1372,-0.1435,-0.1466,-0.1553,-0.1598,-0.1639,-0.1718,-0.1771,-0.1818,-0.1877,-0.1916,-0.1968,-0.1971,-0.1988,-0.2027,-0.2004,-0.2031,-0.2026,-0.1922,-0.1918,-0.1796,-0.1864,-0.2004,-0.1957,-0.1958,-0.1959,-0.1959,0,-0.1401,-0.144,-0.1519,-0.1606,-0.1632,-0.1692,-0.1796,-0.1854,-0.1937,-0.1968,-0.2026,-0.2031,-0.21,-0.2075,-0.21,-0.209,-0.2068,-0.2049,-0.2046,-0.1871,-0.1792,-0.1859,-0.1966,-0.1966,-0.1965,-0.1965,-0.1964,0,-0.1386,-0.1479,-0.1542,-0.1572,-0.1674,-0.1731,-0.1793,-0.1884,-0.1925,-0.2013,-0.2034,-0.2101,-0.2116,-0.2122,-0.2101,-0.2099,-0.2091,-0.2074,-0.1932,-0.1921,-0.199,-0.1979,-0.2094,-0.2094,-0.2094,-0.2094,-0.2095,0,-0.1395,-0.145,-0.1542,-0.1573,-0.165,-0.1729,-0.1809,-0.1876,-0.1955,-0.1987,-0.2065,-0.2076,-0.2128,-0.2124,-0.2109,-0.2022,-0.2095,-0.1951,-0.1909,-0.205,-0.2046,-0.1993,-0.1982,-0.2093,-0.2093,-0.2093,-0.2094,0,-0.1359,-0.1426,-0.1496,-0.1605,-0.1641,-0.1693,-0.1795,-0.1834,-0.1927,-0.1965,-0.1989,-0.2059,-0.2045,-0.2066,-0.2057,-0.2,-0.195,-0.1903,-0.2039,-0.2004,-0.177,-0.1767,-0.1736,-0.1731,-0.1727,-0.1724,-0.1721,0,-0.1337,-0.137,-0.1484,-0.1512,-0.1564,-0.1646,-0.1688,-0.1803,-0.183,-0.1926,-0.192,-0.1954,-0.1979,-0.1846,-0.1899,-0.1848,-0.1833,-0.1795,-0.1812,-0.1776,-0.1739,-0.1742,-0.1745,-0.1714,-0.1713,-0.1712,-0.1711,0,-0.1278,-0.133,-0.1374,-0.1433,-0.1489,-0.1538,-0.1607,-0.1613,-0.1723,-0.1824,-0.1787,-0.1775,-0.1755,-0.1742,-0.1712,-0.1684,-0.1817,-0.1751,-0.176,-0.1776,-0.1748,-0.1716,-0.1724,-0.1696,-0.1699,-0.17,-0.1701,0,-0.1213,-0.1226,-0.1282,-0.1321,-0.1384,-0.1396,-0.1457,-0.1475,-0.1517,-0.1628,-0.1608,-0.165,-0.172,-0.1655,-0.1631,-0.1589,-0.1572,-0.1528,-0.1548,-0.1565,-0.1533,-0.1475,-0.1307,0,0,0,0,0,-0.1132,-0.1128,-0.1157,-0.1194,-0.1253,-0.1287,-0.1377,-0.144,-0.1549,-0.1473,-0.1535,-0.1507,-0.1471,-0.1501,-0.1421,-0.1566,-0.1587,-0.1469,-0.1549,-0.1616,-0.1633,-0.1614,0,0,0,0,0,0,-0.1072,-0.1098,-0.1111,-0.1072,-0.1069,-0.1121,-0.1171,-0.1254,-0.1222,-0.1335,-0.1316,-0.1408,-0.1391,-0.1477,-0.1383,-0.1394,-0.1412,-0.151,-0.1506,-0.1607,-0.1622,-0.1635,-0.1622,0,0,0,0,0]},{"header":{"parameterUnit":"m.s-1","parameterCategory":2,"la1":30.2991,"la2":30.254,"lo1":-89.0895,"lo2":-89.0444,"dy":0.0017,"dx":0.0017,"nx":28,"ny":28,"refTime":"2025-01-02T03:00:00:Z","depth":"4","parameterNumber":3,"parameterNumberName":"V-component_of_CURRENTS"},"data":[0,0,0,0,0,0,0,0,0,0,0,0,0,0,0,0,0,0,0,0,0,0,0,0,0,0,0,0,0,0,0,0,0,0,0,0,0,0,0,0,0,0,0,0,0,0,0,0,0,0,0,0,0,0,0,0,0,0,-0.0211,-0.0212,0,-0.0185,-0.0184,-0.0183,-0.0148,-0.0148,-0.0148,-0.0148,-0.0076,-0.0074,-0.0072,0,0,0,0,0,0,0,0,0,0,0,0,0,-0.02,-0.0201,-0.0211,-0.0212,-0.0212,-0.0185,-0.0184,-0.0183,-0.0148,-0.0148,-0.0148,-0.0148,-0.0076,-0.0074,-0.0072,0,0,0,0,0,0,0,0,0,0,0,0,0,-0.0188,-0.0201,-0.0211,-0.0195,-0.0193,-0.0185,-0.0184,-0.0183,-0.0148,-0.0148,-0.0148,-0.0148,-0.0077,-0.0074,-0.0072,-0.0058,0,0,-0.0063,-0.0062,0,0,0,0,0,0,0,0,-0.0189,-0.0188,-0.0197,-0.0196,-0.0194,-0.0174,-0.0154,-0.0141,-0.0148,-0.016,-0.0148,-0.0148,-0.0108,-0.0103,-0.0091,-0.0055,-0.0052,-0.0063,-0.0062,-0.006,-0.006,0,0,0,0,0,0,0,-0.019,-0.0188,-0.0196,-0.0197,-0.0196,-0.0178,-0.0176,-0.0151,-0.013,-0.0159,-0.0158,-0.0163,-0.0106,-0.0094,-0.0089,-0.0051,-0.0063,-0.0061,-0.0059,-0.0058,0.0017,0.0018,0,0,0,0,0,0,-0.0205,-0.019,-0.0197,-0.0195,-0.0197,-0.0179,-0.0176,-0.0177,-0.0132,-0.0126,-0.0163,-0.0161,-0.0099,-0.0093,-0.0087,-0.0051,-0.006,-0.0058,-0.0056,0.0017,0.0017,0.0018,0,0,0,0,0,0,-0.0205,-0.0206,-0.0198,-0.0196,-0.0194,-0.018,-0.018,-0.0176,-0.0166,-0.0136,-0.0129,-0.0158,-0.0098,-0.0091,-0.0066,-0.0049,-0.0057,-0.0054,0.0017,0.0017,0.0018,0.0009,0,0,0,0,0,0,-0.0204,-0.0206,-0.0211,-0.0197,-0.0195,-0.0197,-0.0181,-0.0176,-0.0172,-0.017,-0.013,-0.0123,-0.0098,-0.0071,-0.0064,-0.0045,-0.0052,0.0016,0.0017,0.0018,0.0009,0.0009,0.0009,0,0,0,0,0,-0.0204,-0.0214,-0.0211,-0.0213,-0.0203,-0.0198,-0.0195,-0.018,-0.0172,-0.0169,-0.0142,-0.0124,-0.0061,-0.0069,-0.006,-0.0041,0.0016,0.0017,0.0017,0.0008,0.0009,0.0009,0,0,0,0,0,0,-0.0211,-0.0212,-0.0208,-0.0218,-0.0212,-0.0194,-0.0196,-0.0184,-0.016,-0.0157,-0.0123,-0.0114,-0.0084,-0.0066,-0.0075,-0.0017,-0.0018,-0.0015,-0.0027,-0.0027,-0.0026,-0.0034,-0.005,0,0,0,0,0,-0.0217,-0.0226,-0.022,-0.0228,-0.0228,-0.0212,-0.0209,-0.0198,-0.0178,-0.0168,-0.014,-0.0108,-0.0074,-0.0055,-0.0028,0.0,0.0024,0.0019,0.002,0.002,0.0019,0.0073,0.0078,0.0021,0.0021,0.0021,0,0,-0.0226,-0.0226,-0.0233,-0.0231,-0.0224,-0.0221,-0.0208,-0.0206,-0.0194,-0.0164,-0.0138,-0.0109,-0.0068,-0.0034,-0.0018,-0.0016,0.0047,0.0021,0.0021,0.002,0.0075,0.008,0.0085,0.0021,0.0021,0.0021,0,0,-0.0244,-0.0244,-0.0256,-0.025,-0.0247,-0.0234,-0.0237,-0.0219,-0.0202,-0.0179,-0.0148,-0.0109,-0.0069,-0.0026,-0.0001,0.0017,0.0044,0.0023,0.0024,0.0077,0.0083,0.0088,0.0117,0.0125,0.0027,0.0027,0.0027,0,-0.0254,-0.0264,-0.0258,-0.0261,-0.0261,-0.0242,-0.0246,-0.0223,-0.0197,-0.018,-0.0175,-0.0094,-0.006,-0.0,0.0007,0.002,0.004,0.002,0.0078,0.0084,0.0089,0.0118,0.0127,0.0027,0.0027,0.0027,0.0027,0,-0.0274,-0.0281,-0.0287,-0.0284,-0.0278,-0.0282,-0.0256,-0.0241,-0.022,-0.0192,-0.0141,-0.0089,-0.004,-0.0017,0.0,0.0059,0.0057,0.0069,0.0077,0.0094,0.0124,0.0133,0.0026,0.0026,0.0026,0.0026,0,0,-0.0304,-0.0303,-0.0306,-0.031,-0.0292,-0.0292,-0.0269,-0.0243,-0.0225,-0.0179,-0.0147,-0.0073,-0.0045,-0.0016,0.0023,0.0073,0.0129,0.0081,0.0084,0.0109,0.0227,0.0194,0.0201,0.015,0.0151,0.0153,0.023,0,-0.0325,-0.034,-0.0328,-0.0338,-0.0346,-0.0317,-0.0299,-0.0267,-0.0231,-0.0193,-0.0119,-0.0077,-0.0043,-0.0021,0.0038,0.0099,0.0154,0.0106,0.0208,0.021,0.0178,0.0211,0.0158,0.0237,0.0239,0.024,0.0242,0,-0.0351,-0.0359,-0.0376,-0.0371,-0.0371,-0.0369,-0.0342,-0.0321,-0.0254,-0.0224,-0.0158,-0.0108,-0.0026,-0.0004,0.0128,0.0091,0.0158,0.0211,0.0215,0.0194,0.0195,0.0219,0.0259,0.0257,0.0256,0.0255,0.0254,0,-0.0387,-0.0392,-0.041,-0.0409,-0.0396,-0.0397,-0.0386,-0.0335,-0.0316,-0.0245,-0.0223,-0.0118,-0.0073,0.0032,0.0139,0.0133,0.0275,0.0285,0.0325,0.0323,0.0332,0.0326,0.039,0.039,0.039,0.039,0.0389,0,-0.0415,-0.0432,-0.0434,-0.0445,-0.0464,-0.0439,-0.044,-0.0409,-0.0361,-0.0336,-0.0247,-0.0202,-0.0063,0.0034,0.0135,0.025,0.0279,0.033,0.0347,0.0325,0.0317,0.0339,0.0332,0.0392,0.0392,0.0391,0.0391,0,-0.0452,-0.0452,-0.0478,-0.048,-0.0486,-0.0501,-0.0493,-0.0483,-0.0435,-0.04,-0.0381,-0.0264,-0.0144,-0.0004,0.0162,0.0232,0.0353,0.0392,0.0344,0.0356,0.0365,0.0357,0.044,0.044,0.0439,0.0439,0.0439,0,-0.047,-0.0488,-0.0515,-0.0536,-0.0544,-0.056,-0.0567,-0.0529,-0.0513,-0.0434,-0.0416,-0.03,-0.0211,0.0,0.0141,0.033,0.0359,0.0412,0.0406,0.0365,0.0374,0.0366,0.0358,0.0438,0.0438,0.0438,0.0438,0,-0.0503,-0.0517,-0.0536,-0.0584,-0.0608,-0.0623,-0.0628,-0.0624,-0.0568,-0.0531,-0.0434,-0.0314,-0.018,-0.0013,0.0131,0.027,0.037,0.0409,0.0411,0.0406,0.0364,0.0371,0.0364,0.0437,0.0437,0.0437,0.0437,0,-0.0526,-0.0551,-0.0581,-0.0616,-0.0654,-0.0669,-0.0668,-0.0635,-0.0608,-0.0516,-0.0489,-0.0328,-0.0231,-0.0043,0.0092,0.0217,0.0249,0.0285,0.0294,0.0297,0.0229,0.0153,0.0183,0,0,0,0,0,-0.054,-0.0566,-0.0607,-0.0643,-0.0681,-0.0694,-0.0695,-0.068,-0.0636,-0.0575,-0.0526,-0.0396,-0.0188,-0.0091,0.0028,0.0076,0.0259,0.0217,0.0302,0.0431,0.0432,0.0374,0,0,0,0,0,0,-0.0549,-0.0592,-0.0607,-0.0652,-0.0681,-0.071,-0.0711,-0.0683,-0.0635,-0.0579,-0.0464,-0.0385,-0.0181,-0.026,0.0024,0.0063,0.0128,0.0323,0.0325,0.043,0.0431,0.0432,0.0373,0,0,0,0,0]}]]